GW3985 Weather Reports


time (UTC)temp
F
wind
direction
speed
knots
gust
knots
rain 1hr
in
rain 24hr
in
rain mn
in
humidity
%
barometer
mb
20260508044015 54 95 0.0 1.7 0.00 0.06 0.06 55 1019.0
20260508043016 55 232 0.0 0.9 0.00 0.06 0.06 53 1019.2
20260508042016 55 0.0 0.0 0.00 0.06 0.06 52 1019.0
20260508041016 55 0.0 0.0 0.00 0.06 0.06 50 1019.2
20260508040017 56 0.0 0.0 0.00 0.06 0.06 50 1019.1
20260508035015 56 0.0 0.0 0.00 0.06 0.06 49 1019.1
20260508034115 57 0.0 0.0 0.00 0.06 0.06 48 1019.0
20260508033015 57 199 0.0 0.9 0.00 0.06 0.06 47 1019.1
20260508032036 57 125 0.0 1.7 0.00 0.06 0.06 48 1019.1
20260508031016 57 236 0.0 0.9 0.00 0.06 0.06 47 1019.5
20260508030017 57 231 0.0 0.9 0.00 0.06 0.06 46 1019.1
20260508025017 57 0.0 0.0 0.00 0.06 0.06 46 1018.8
20260508024014 58 258 0.0 0.9 0.00 0.06 0.06 45 1018.7
20260508023015 59 210 0.0 0.9 0.00 0.06 0.06 44 1018.5
20260508022035 58 354 0.9 6.1 0.00 0.06 0.06 44 1018.6
20260508021016 58 0.0 0.0 0.00 0.06 0.06 46 1018.3
20260508020016 59 0.0 0.0 0.00 0.06 0.06 44 1017.9
20260508015016 59 0.0 0.0 0.00 0.06 0.06 44 1017.7
20260508014017 60 0.0 0.0 0.00 0.06 0.06 42 1017.5
20260508013015 61 0.0 0.0 0.00 0.06 0.06 40 1017.4
20260508012015 61 0.0 0.0 0.00 0.07 0.06 39 1017.3
20260508011015 62 0.0 0.0 0.00 0.07 0.06 37 1017.2
20260508010016 62 0.0 0.0 0.00 0.07 0.06 38 1017.1
20260508005016 61 81 0.0 0.9 0.00 0.07 0.06 36 1017.3
20260508004037 61 0.0 0.0 0.00 0.08 0.06 36 1017.3
20260508003017 62 0.0 0.0 0.00 0.08 0.06 36 1017.2
20260508002015 62 83 0.0 3.5 0.00 0.09 0.06 34 1017.2
20260508001015 63 269 0.0 0.9 0.00 0.09 0.06 34 1017.2
20260508000015 63 269 0.0 0.9 0.00 0.09 0.06 34 1017.4
20260507235016 63 0.0 0.0 0.00 0.10 0.06 35 1017.3
20260507234017 62 269 0.0 0.9 0.00 0.11 0.06 35 1017.4
20260507233017 63 0.0 0.0 0.00 0.12 0.06 34 1017.4
20260507232017 63 267 0.0 0.9 0.00 0.13 0.06 33 1017.5
20260507231015 64 0.0 0.0 0.00 0.14 0.06 33 1017.5
20260507230015 65 233 0.0 0.9 0.00 0.16 0.06 32 1017.6
20260507225036 66 229 0.0 0.9 0.00 0.17 0.06 31 1017.6
20260507224016 68 248 0.0 0.9 0.00 0.18 0.06 30 1017.7
20260507223037 70 237 0.0 1.7 0.00 0.19 0.06 30 1017.7
20260507222017 68 246 0.0 0.9 0.00 0.20 0.06 31 1017.8
20260507221014 68 115 0.9 1.7 0.00 0.21 0.06 31 1017.9
20260507220015 69 199 0.9 1.7 0.00 0.22 0.06 30 1018.1
20260507215036 70 307 0.0 3.5 0.00 0.24 0.06 30 1018.2
20260507214036 69 83 0.9 3.5 0.00 0.24 0.06 29 1018.3
20260507213016 70 125 1.7 6.1 0.00 0.26 0.06 29 1018.3
20260507212016 68 204 0.9 6.1 0.00 0.28 0.06 30 1018.4
20260507211017 67 56 0.0 3.5 0.00 0.28 0.06 31 1018.5
20260507210015 69 145 0.9 2.6 0.00 0.30 0.06 31 1018.6
20260507205015 72 196 0.9 4.3 0.00 0.31 0.06 29 1018.6
20260507204036 70 250 0.9 2.6 0.00 0.34 0.06 30 1018.7
20260507203036 69 223 0.9 1.7 0.00 0.35 0.06 31 1018.8
20260507202016 69 174 1.7 5.2 0.00 0.38 0.06 30 1019.0
20260507201016 68 143 0.9 3.5 0.00 0.40 0.06 30 1019.2
20260507200017 68 150 0.9 2.6 0.00 0.43 0.06 31 1019.3
20260507195015 68 28 0.9 1.7 0.00 0.43 0.06 31 1019.5
20260507194015 67 287 0.9 3.5 0.00 0.44 0.06 32 1019.6
20260507193016 67 206 1.7 7.8 0.00 0.44 0.06 32 1019.6
20260507192016 66 230 1.7 4.3 0.00 0.44 0.06 34 1019.6
20260507191016 66 227 2.6 7.0 0.00 0.45 0.06 32 1019.7
20260507190017 65 240 1.7 7.0 0.00 0.45 0.06 35 1019.8
20260507185018 63 226 1.7 6.1 0.00 0.45 0.06 37 1019.8
20260507184035 63 242 2.6 7.0 0.00 0.45 0.06 37 1020.1
20260507183016 63 232 1.7 5.2 0.00 0.46 0.06 37 1020.2
20260507182016 62 266 1.7 4.3 0.00 0.46 0.06 38 1020.3
20260507181016 62 252 1.7 6.1 0.01 0.46 0.06 39 1020.2
20260507180057 60 273 1.7 3.5 0.01 0.46 0.06 41 1020.3
20260507175017 59 267 1.7 7.0 0.01 0.46 0.06 41 1020.2
20260507174034 59 135 0.9 2.6 0.02 0.46 0.06 41 1020.4
20260507173015 59 132 1.7 3.5 0.02 0.46 0.06 41 1020.6
20260507172015 59 189 0.9 6.1 0.02 0.46 0.06 42 1020.6
20260507171016 58 138 0.9 3.5 0.02 0.46 0.06 43 1020.8
20260507170016 57 130 0.9 7.0 0.02 0.46 0.06 45 1020.9
20260507165016 56 130 0.9 3.5 0.03 0.46 0.06 46 1021.1
20260507164017 55 129 0.9 2.6 0.02 0.45 0.05 46 1021.1
20260507163015 55 121 0.9 3.5 0.04 0.45 0.05 45 1021.2
20260507162035 55 278 0.9 3.5 0.03 0.44 0.04 47 1021.3
20260507161035 54 137 1.7 5.2 0.03 0.44 0.04 48 1021.4
20260507160016 53 154 0.9 4.3 0.03 0.43 0.03 48 1021.5
20260507155037 52 134 0.9 3.5 0.02 0.43 0.02 49 1021.5
20260507154016 51 134 0.9 3.5 0.02 0.43 0.02 49 1021.6
20260507153017 50 135 0.9 3.5 0.01 0.41 0.01 49 1021.6
20260507152055 49 138 0.9 3.5 0.01 0.41 0.01 50 1021.6
20260507151015 48 137 1.7 5.2 0.01 0.41 0.01 50 1021.5
20260507150016 47 131 0.9 2.6 0.00 0.40 0.00 50 1021.5
20260507145016 47 127 1.7 5.2 0.00 0.40 0.00 49 1021.5
20260507144036 46 136 1.7 6.1 0.00 0.40 0.00 51 1021.6
20260507143037 45 139 2.6 6.1 0.00 0.40 0.00 51 1021.5
20260507142018 45 136 1.7 4.3 0.00 0.40 0.00 51 1021.5
20260507141015 44 146 1.7 4.3 0.00 0.40 0.00 51 1021.6
20260507140015 44 131 1.7 7.0 0.00 0.40 0.00 50 1021.6
20260507135015 43 137 0.9 3.5 0.00 0.40 0.00 53 1021.5
20260507134016 42 139 1.7 4.3 0.00 0.40 0.00 53 1021.5
20260507133016 41 138 0.9 4.3 0.00 0.40 0.00 54 1021.5
20260507132017 40 130 0.9 3.5 0.00 0.40 0.00 55 1021.4
20260507131017 39 137 1.7 6.1 0.00 0.40 0.00 55 1021.4
20260507130035 39 132 1.7 5.2 0.00 0.40 0.00 56 1021.3
20260507125015 38 141 1.7 4.3 0.00 0.40 0.00 57 1021.2
20260507124016 37 132 0.9 1.7 0.00 0.40 0.00 58 1021.1
20260507123016 37 138 0.9 4.3 0.00 0.40 0.00 59 1020.9
20260507122056 36 136 0.9 2.6 0.00 0.40 0.00 59 1020.9
20260507121017 36 137 0.9 3.5 0.00 0.40 0.00 59 1020.8
20260507120017 36 136 0.9 2.6 0.00 0.40 0.00 60 1020.8
20260507115015 36 135 0.9 2.6 0.00 0.40 0.00 60 1020.6
20260507114015 36 136 0.9 4.3 0.00 0.40 0.00 59 1020.7
20260507113016 36 133 0.9 2.6 0.00 0.40 0.00 59 1020.7
20260507112016 36 139 0.9 1.7 0.00 0.40 0.00 59 1020.6
20260507111016 37 137 0.9 2.6 0.00 0.40 0.00 58 1020.6
20260507110017 36 136 1.7 4.3 0.00 0.40 0.00 59 1020.7
20260507105017 36 139 1.7 5.2 0.00 0.40 0.00 59 1020.7
20260507104035 36 137 1.7 3.5 0.00 0.40 0.00 60 1020.7
20260507103015 36 136 2.6 4.3 0.00 0.40 0.00 60 1020.7
20260507102015 36 134 0.9 3.5 0.00 0.40 0.00 61 1020.8
20260507101016 35 139 1.7 3.5 0.00 0.40 0.00 62 1020.9
20260507100016 35 136 1.7 4.3 0.00 0.40 0.00 63 1021.0
20260507095057 35 138 0.9 3.5 0.00 0.40 0.00 63 1021.1
20260507094017 35 139 0.9 2.6 0.00 0.40 0.00 64 1021.1
20260507093017 35 138 1.7 3.5 0.00 0.40 0.00 64 1021.1
20260507092016 35 139 0.9 3.5 0.00 0.40 0.00 65 1021.0
20260507091015 36 133 1.7 4.3 0.00 0.40 0.00 64 1021.1
20260507090016 35 138 2.6 8.7 0.00 0.40 0.00 64 1021.0
20260507085016 35 138 1.7 4.3 0.00 0.40 0.00 67 1021.1
20260507084017 35 138 1.7 3.5 0.00 0.40 0.00 67 1021.3
20260507083017 35 134 1.7 3.5 0.00 0.40 0.00 68 1021.3
20260507082015 35 138 0.9 2.6 0.00 0.40 0.00 68 1021.3
20260507081015 35 141 1.7 5.2 0.00 0.40 0.00 70 1021.2
20260507080016 35 138 1.7 4.3 0.00 0.40 0.00 71 1021.5
20260507075056 34 137 1.7 4.3 0.00 0.40 0.00 73 1021.7
20260507074017 34 141 1.7 5.2 0.00 0.40 0.00 75 1021.9
20260507073037 33 140 1.7 4.3 0.00 0.40 0.00 77 1022.0
20260507072017 33 138 1.7 5.2 0.00 0.40 0.00 78 1022.0
20260507071035 33 137 1.7 4.3 0.00 0.40 0.00 80 1021.9
20260507070036 33 137 1.7 5.2 0.00 0.40 0.00 81 1021.9
20260507065016 33 140 1.7 5.2 0.00 0.40 0.00 82 1021.9
20260507064016 33 137 0.9 3.5 0.00 0.40 0.00 82 1022.1
20260507063016 33 137 1.7 4.3 0.00 0.40 0.00 82 1021.9
20260507062017 33 136 1.7 3.5 0.00 0.40 0.00 82 1021.9
20260507061014 33 138 1.7 5.2 0.00 0.40 0.00 82 1022.0
20260507060015 33 137 1.7 3.5 0.00 0.40 0.00 83 1022.0
20260507055015 33 139 1.7 3.5 0.00 0.40 0.40 83 1022.1
20260507054016 33 140 1.7 4.3 0.00 0.40 0.40 83 1022.1
20260507053016 33 138 1.7 3.5 0.00 0.40 0.40 83 1022.0
20260507052037 33 134 1.7 3.5 0.00 0.40 0.40 83 1022.0
20260507051017 33 141 1.7 4.3 0.00 0.40 0.40 83 1021.9
20260507050014 33 140 1.7 3.5 0.00 0.40 0.40 83 1021.9
20260507045015 34 135 1.7 3.5 0.00 0.40 0.40 83 1021.9